Weather History for KMKG - November, 2012

Change the Weather History Date:

Monday, November 19, 2012

  Actual Average Record
Temperature  
Mean Temperature 44 °F 39 °F  
Max Temperature 55 °F 45 °F 74 °F (1930)
Min Temperature 32 °F 33 °F 10 °F (1986)
Degree Days  
Heating Degree Days 21 26  
Month to date heating degree days 445 433  
Since 1 July heating degree days 1027 1056  
Cooling Degree Days 0 0  
Month to date cooling degree days 0 0  
Year to date cooling degree days 925 566  
Moisture  
Dew Point 32 °F    
Average Humidity 63    
Maximum Humidity 82    
Minimum Humidity 43    
Precipitation  
Precipitation 0.00 in 0.12 in 1.35 in (1913)
Month to date precipitation 0.45 2.18  
Year to date precipitation 28.43 29.76  
Snow  
Snow 0.00 in 0.20 in 5.00 in (1914)
Month to date snowfall 0.2 2.3  
Since 1 July snowfall 0.2 2.5  
Since 1 September snowfall 0.2 2.5  
Snow Depth 0.00 in    
Sea Level Pressure  
Sea Level Pressure 30.27 in    
Wind  
Wind Speed 4 mph (SE)    
Max Wind Speed 8 mph    
Max Gust Speed 10 mph    
Visibility 9 miles    
Events      
T = Trace of Precipitation, MM = Missing Value Source: NWS Daily Summary

Daily Weather History Graph

Daily Weather History Graph

Search for Another Location

Airport or City:

Trip Planner

Search our weather history database for the weather conditions in past years. The results will help you decide how hot, cold, wet, or windy it might be!

Date:

Astronomy

Nov. 19, 2012 Rise Set
Actual Time 7:43 AM EST 5:17 PM EST
Civil Twilight 7:12 AM EST 5:48 PM EST
Nautical Twilight 6:37 AM EST 6:22 PM EST
Astronomical Twilight 6:03 AM EST 6:56 PM EST
Moon 12:42 PM EST (11/19) 11:48 PM EST (11/19)
Length of Visible Light 10h 35m
Length of Day
9h 33m
Waxing Crescent, 40% of the Moon is Illuminated
Nov 19
Waxing Crescent
Nov 20
First Quarter
Nov 28
Full
Dec 6
Last Quarter
Dec 13
New

Hourly Weather History & Observations

Time (EST) Temp. Windchill Dew Point Humidity Pressure Visibility Wind Dir Wind Speed Gust Speed Precip Events Conditions
12:55 AM 39.0 °F 36.8 °F 28.9 °F 67% 30.38 in 10.0 mi ESE 3.5 mph - N/A   Clear
1:55 AM 33.1 °F 28.7 °F 27.0 °F 78% 30.36 in 9.0 mi ESE 4.6 mph - N/A   Clear
2:55 AM 35.1 °F 30.1 °F 28.0 °F 76% 30.36 in 10.0 mi ESE 5.8 mph - N/A   Clear
3:55 AM 33.1 °F 30.0 °F 28.0 °F 82% 30.34 in 9.0 mi ESE 3.5 mph - N/A   Clear
4:55 AM 34.0 °F 29.8 °F 28.0 °F 79% 30.34 in 8.0 mi ESE 4.6 mph - N/A   Clear
5:55 AM 34.0 °F 31.0 °F 28.9 °F 82% 30.35 in 8.0 mi ESE 3.5 mph - N/A   Clear
6:55 AM 35.1 °F 31.0 °F 28.9 °F 78% 30.33 in 8.0 mi ESE 4.6 mph - N/A   Clear
7:55 AM 35.1 °F 31.0 °F 28.9 °F 78% 30.33 in 7.0 mi SE 4.6 mph - N/A   Clear
8:55 AM 37.9 °F 33.5 °F 30.9 °F 76% 30.33 in 7.0 mi SE 5.8 mph - N/A   Clear
9:55 AM 43.0 °F 39.5 °F 32.0 °F 65% 30.32 in 9.0 mi ESE 5.8 mph - N/A   Clear
10:55 AM 45.0 °F 42.6 °F 32.0 °F 60% 30.32 in 10.0 mi SE 4.6 mph - N/A   Scattered Clouds
11:55 AM 48.9 °F - 32.0 °F 52% 30.29 in 10.0 mi South 4.6 mph - N/A   Scattered Clouds
12:55 PM 53.1 °F - 33.1 °F 47% 30.26 in 10.0 mi SE 4.6 mph - N/A   Scattered Clouds
1:55 PM 54.0 °F - 33.1 °F 45% 30.25 in 10.0 mi SSE 5.8 mph - N/A   Scattered Clouds
2:55 PM 54.0 °F - 33.1 °F 45% 30.23 in 10.0 mi SSE 6.9 mph - N/A   Scattered Clouds
3:55 PM 55.0 °F - 34.0 °F 45% 30.22 in 10.0 mi SE 5.8 mph - N/A   Scattered Clouds
4:55 PM 52.0 °F - 35.1 °F 53% 30.21 in 10.0 mi SE 3.5 mph - N/A   Scattered Clouds
5:55 PM 48.0 °F - 34.0 °F 58% 30.21 in 10.0 mi Calm Calm - N/A   Scattered Clouds
6:55 PM 48.0 °F - 35.1 °F 61% 30.19 in 10.0 mi SE 4.6 mph - N/A   Mostly Cloudy
7:55 PM 48.0 °F - 36.0 °F 63% 30.18 in 10.0 mi ESE 3.5 mph - N/A   Overcast
8:55 PM 46.9 °F - 36.0 °F 66% 30.18 in 10.0 mi ESE 4.6 mph - N/A   Overcast
9:55 PM 46.9 °F - 35.1 °F 63% 30.17 in 10.0 mi SSE 3.5 mph - N/A   Overcast
10:55 PM 48.9 °F - 34.0 °F 56% 30.17 in 10.0 mi SSE 3.5 mph - N/A   Mostly Cloudy
11:55 PM 46.0 °F - 35.1 °F 66% 30.14 in 10.0 mi Calm Calm - N/A   Overcast